User: anonymous   Login
Location: Unspecified
(0.0000°N, 0.0000°E)
Time: 01:49:12
(UTC+00:00)
Language:

TBA - TO BE ASSIGNED - Orbit

View from above orbital plane
View from above orbital plane
View from above satellite
View from above satellite

Ground track
Ground track

The orbit is defined by the following mean orbital elements,

1 67955U          26145.27642067 +.00000000 +00000-0 +95950-3 0 00008
2 67955  42.9986 118.1927 0001485 269.8996  90.1685 15.27598300    07
Epoch (UTC): 25 May 2026 06:38:02
Eccentricity: 0.0001485
inclination: 42.9986°
perigee height: 482 km
apogee height: 484 km
right ascension of ascending node: 118.1927°
argument of perigee: 269.8996°
revolutions per day: 15.27598300
mean anomaly at epoch: 90.1685°

The dashed part of the orbit path shows where the satellite is in the earth's shadow,  

DLR